When you browse on this site, cookies collect data to enhance your experience and personalize the content and advertising you see.
Visit our Privacy Policy to learn more. By continuing to use the site, you agree to this use of cookies and data.
  • In Österreich
  • Länderverzeichnis
  • Für 7 Tage
  • Wassertemperatur
  • Wetterkarte
  • News
  • Widgets
  • user-avatar
    Anmelden

    Stündliche Wetter Zorya

    Heute, 19 September, Donnerstag

    Zeit Temperatur Niederschläge Wind Luftdruck Luftfeuchtigkeit
    00:00 +11°C° 0 mm 7 m/S 759 mmHg 55%
    01:00 +10°C° 0 mm 7 m/S 759 mmHg 58%
    02:00 +10°C° 0 mm 6 m/S 760 mmHg 61%
    03:00 +9°C° 0 mm 6 m/S 760 mmHg 65%
    04:00 +9°C° 0 mm 5 m/S 760 mmHg 68%
    05:00 +8°C° 0 mm 5 m/S 761 mmHg 71%
    06:00 +10°C° 0 mm 5 m/S 761 mmHg 67%
    07:00 +12°C° 0 mm 4 m/S 761 mmHg 63%
    08:00 +13°C° 0 mm 4 m/S 762 mmHg 60%
    09:00 +14°C° 0 mm 5 m/S 762 mmHg 53%
    10:00 +16°C° 0 mm 5 m/S 762 mmHg 46%
    11:00 +17°C° 0 mm 5 m/S 762 mmHg 39%
    12:00 +19°C° 0 mm 5 m/S 761 mmHg 35%
    13:00 +20°C° 0 mm 5 m/S 761 mmHg 32%
    14:00 +20°C° 0 mm 5 m/S 761 mmHg 28%
    15:00 +20°C° 0 mm 5 m/S 761 mmHg 29%
    16:00 +19°C° 0 mm 5 m/S 761 mmHg 30%
    17:00 +19°C° 0 mm 5 m/S 760 mmHg 31%
    18:00 +18°C° 0 mm 4 m/S 761 mmHg 35%
    19:00 +15°C° 0 mm 4 m/S 761 mmHg 38%
    20:00 +14°C° 0 mm 3 m/S 761 mmHg 41%
    21:00 +14°C° 0 mm 3 m/S 761 mmHg 43%
    22:00 +14°C° 0 mm 2 m/S 761 mmHg 44%
    23:00 +14°C° 0 mm 2 m/S 761 mmHg 45%

    Morgen, 20 September, Freitag

    Zeit Temperatur Niederschläge Wind Luftdruck Luftfeuchtigkeit
    00:00 +14°C° 0 mm 2 m/S 761 mmHg 46%
    01:00 +13°C° 0 mm 2 m/S 760 mmHg 48%
    02:00 +13°C° 0 mm 1 m/S 760 mmHg 49%
    03:00 +13°C° 0 mm 2 m/S 760 mmHg 52%
    04:00 +12°C° 0 mm 2 m/S 760 mmHg 55%
    05:00 +12°C° 0 mm 2 m/S 760 mmHg 57%
    06:00 +13°C° 0 mm 2 m/S 760 mmHg 53%
    07:00 +14°C° 0 mm 2 m/S 760 mmHg 50%
    08:00 +14°C° 0 mm 3 m/S 759 mmHg 46%
    09:00 +16°C° 0 mm 3 m/S 759 mmHg 41%
    10:00 +17°C° 0 mm 3 m/S 759 mmHg 37%
    11:00 +18°C° 0 mm 3 m/S 759 mmHg 33%
    12:00 +18°C° 0 mm 3 m/S 759 mmHg 32%
    13:00 +19°C° 0 mm 3 m/S 758 mmHg 31%
    14:00 +19°C° 0 mm 4 m/S 758 mmHg 29%
    15:00 +18°C° 0 mm 4 m/S 758 mmHg 31%
    16:00 +18°C° 0 mm 3 m/S 758 mmHg 33%
    17:00 +18°C° 0 mm 3 m/S 758 mmHg 35%
    18:00 +15°C° 0.4 mm 4 m/S 758 mmHg 44%
    19:00 +13°C° 0.4 mm 4 m/S 758 mmHg 52%
    20:00 +12°C° 0.4 mm 4 m/S 759 mmHg 60%
    21:00 +12°C° 0.4 mm 5 m/S 759 mmHg 62%
    22:00 +12°C° 0.4 mm 5 m/S 759 mmHg 63%
    23:00 +10°C° 0.4 mm 6 m/S 759 mmHg 64%

    übermorgen, 21 September, Samstag

    Zeit Temperatur Niederschläge Wind Luftdruck Luftfeuchtigkeit
    00:00 +10°C° 0 mm 6 m/S 759 mmHg 68%
    01:00 +9°C° 0 mm 6 m/S 759 mmHg 73%
    02:00 +8°C° 0 mm 6 m/S 760 mmHg 77%
    03:00 +8°C° 0 mm 6 m/S 760 mmHg 76%
    04:00 +7°C° 0 mm 6 m/S 760 mmHg 75%
    05:00 +7°C° 0 mm 6 m/S 760 mmHg 74%
    06:00 +6°C° 0 mm 7 m/S 761 mmHg 69%
    07:00 +8°C° 0 mm 7 m/S 761 mmHg 64%
    08:00 +9°C° 0 mm 7 m/S 761 mmHg 60%
    09:00 +9°C° 0 mm 7 m/S 762 mmHg 58%
    10:00 +10°C° 0 mm 7 m/S 762 mmHg 56%
    11:00 +11°C° 0 mm 7 m/S 762 mmHg 54%
    12:00 +11°C° 0 mm 7 m/S 762 mmHg 50%
    13:00 +13°C° 0 mm 6 m/S 762 mmHg 46%
    14:00 +14°C° 0 mm 6 m/S 762 mmHg 43%
    15:00 +14°C° 0 mm 6 m/S 762 mmHg 40%
    16:00 +14°C° 0 mm 6 m/S 762 mmHg 37%
    17:00 +14°C° 0 mm 5 m/S 762 mmHg 35%
    18:00 +13°C° 0 mm 5 m/S 762 mmHg 36%
    19:00 +12°C° 0 mm 4 m/S 763 mmHg 38%
    20:00 +11°C° 0 mm 4 m/S 763 mmHg 40%
    21:00 +10°C° 0 mm 4 m/S 763 mmHg 41%
    22:00 +10°C° 0 mm 4 m/S 763 mmHg 42%
    23:00 +9°C° 0 mm 5 m/S 763 mmHg 43%

    22 September, Sonntag

    Zeit Temperatur Niederschläge Wind Luftdruck Luftfeuchtigkeit
    00:00 +10°C° 0 mm 6 m/S 762 mmHg 44%
    01:00 +10°C° 0 mm 6 m/S 762 mmHg 44%
    02:00 +10°C° 0 mm 7 m/S 762 mmHg 44%
    03:00 +11°C° 0 mm 7 m/S 762 mmHg 45%
    04:00 +11°C° 0 mm 7 m/S 761 mmHg 46%
    05:00 +12°C° 0 mm 7 m/S 761 mmHg 48%
    06:00 +12°C° 0 mm 7 m/S 761 mmHg 47%
    07:00 +14°C° 0 mm 7 m/S 761 mmHg 46%
    08:00 +14°C° 0 mm 7 m/S 761 mmHg 45%
    09:00 +16°C° 0 mm 7 m/S 761 mmHg 43%
    10:00 +17°C° 0 mm 8 m/S 760 mmHg 40%
    11:00 +20°C° 0 mm 8 m/S 760 mmHg 37%
    12:00 +21°C° 0 mm 8 m/S 760 mmHg 36%
    13:00 +22°C° 0 mm 8 m/S 759 mmHg 36%
    14:00 +22°C° 0 mm 8 m/S 759 mmHg 35%
    15:00 +22°C° 0 mm 7 m/S 759 mmHg 36%
    16:00 +22°C° 0 mm 7 m/S 758 mmHg 38%
    17:00 +21°C° 0 mm 6 m/S 758 mmHg 39%
    18:00 +20°C° 0 mm 5 m/S 759 mmHg 43%
    19:00 +19°C° 0 mm 5 m/S 759 mmHg 47%
    20:00 +17°C° 0 mm 4 m/S 759 mmHg 51%
    21:00 +17°C° 0 mm 4 m/S 760 mmHg 54%
    22:00 +15°C° 0 mm 4 m/S 760 mmHg 56%
    23:00 +15°C° 0 mm 4 m/S 760 mmHg 59%

    23 September, Montag

    Zeit Temperatur Niederschläge Wind Luftdruck Luftfeuchtigkeit
    00:00 +14°C° 0 mm 3 m/S 760 mmHg 61%
    01:00 +14°C° 0 mm 3 m/S 761 mmHg 64%
    02:00 +15°C° 0 mm 2 m/S 761 mmHg 66%
    03:00 +14°C° 0 mm 2 m/S 761 mmHg 70%
    04:00 +14°C° 0 mm 2 m/S 761 mmHg 73%
    05:00 +13°C° 0 mm 2 m/S 761 mmHg 76%
    06:00 +15°C° 0 mm 2 m/S 761 mmHg 71%
    07:00 +16°C° 0 mm 3 m/S 762 mmHg 65%
    08:00 +17°C° 0 mm 3 m/S 762 mmHg 60%
    09:00 +19°C° 0 mm 3 m/S 762 mmHg 54%
    10:00 +21°C° 0 mm 2 m/S 762 mmHg 48%
    11:00 +23°C° 0 mm 2 m/S 762 mmHg 42%
    12:00 +24°C° 0 mm 2 m/S 761 mmHg 39%
    13:00 +25°C° 0 mm 2 m/S 760 mmHg 35%
    14:00 +26°C° 0 mm 2 m/S 760 mmHg 32%
    15:00 +25°C° 0 mm 2 m/S 759 mmHg 34%
    16:00 +24°C° 0 mm 2 m/S 759 mmHg 36%
    17:00 +24°C° 0 mm 2 m/S 759 mmHg 37%
    18:00 +21°C° 0 mm 3 m/S 759 mmHg 45%
    19:00 +20°C° 0 mm 4 m/S 759 mmHg 53%
    20:00 +19°C° 0 mm 5 m/S 759 mmHg 61%
    21:00 +17°C° 0 mm 5 m/S 758 mmHg 64%
    22:00 +18°C° 0 mm 4 m/S 758 mmHg 67%
    23:00 +18°C° 0 mm 4 m/S 758 mmHg 70%

    24 September, Dienstag

    Zeit Temperatur Niederschläge Wind Luftdruck Luftfeuchtigkeit
    00:00 +18°C° 0 mm 4 m/S 758 mmHg 70%
    01:00 +17°C° 0 mm 4 m/S 757 mmHg 69%
    02:00 +17°C° 0 mm 4 m/S 757 mmHg 68%
    03:00 +17°C° 0 mm 4 m/S 757 mmHg 70%
    04:00 +17°C° 0 mm 4 m/S 756 mmHg 71%
    05:00 +17°C° 0 mm 4 m/S 756 mmHg 73%
    06:00 +17°C° 0 mm 4 m/S 755 mmHg 70%
    07:00 +17°C° 0 mm 5 m/S 755 mmHg 67%
    08:00 +19°C° 0 mm 5 m/S 755 mmHg 65%
    09:00 +19°C° 0 mm 5 m/S 754 mmHg 62%
    10:00 +20°C° 0 mm 5 m/S 754 mmHg 59%
    11:00 +20°C° 0 mm 5 m/S 754 mmHg 55%
    12:00 +21°C° 0 mm 4 m/S 753 mmHg 52%
    13:00 +21°C° 0 mm 4 m/S 753 mmHg 48%
    14:00 +21°C° 0 mm 4 m/S 752 mmHg 45%
    15:00 +21°C° 0.2 mm 4 m/S 752 mmHg 50%
    16:00 +20°C° 0.2 mm 5 m/S 752 mmHg 54%
    17:00 +20°C° 0.2 mm 5 m/S 751 mmHg 59%
    18:00 +19°C° 1 mm 5 m/S 752 mmHg 67%
    19:00 +19°C° 1 mm 6 m/S 752 mmHg 76%
    20:00 +17°C° 1 mm 6 m/S 752 mmHg 84%
    21:00 +17°C° 0 mm 5 m/S 752 mmHg 86%
    22:00 +16°C° 0 mm 5 m/S 752 mmHg 88%
    23:00 +17°C° 0 mm 4 m/S 752 mmHg 90%
    Mehr zeigen